This is the latest recevied weather packets stored in our database for station/object K4OAM-13. If no packets are shown the sender has not sent any weather packets the latest 10 day(s).
| Time | Temp. | Humidity | Pressure | Rain* | Wind** | Luminosity | Snow |
|---|---|---|---|---|---|---|---|
| 1778156160 | 2.78° C | 73% | 1020.4 hPa | - | - | - | - |
| 1778155559 | 2.78° C | 74% | 1020.3 hPa | - | - | - | - |
| 1778154960 | 2.78° C | 74% | 1020.2 hPa | - | - | - | - |
| 1778154359 | 2.78° C | 74% | 1020.3 hPa | - | - | - | - |
| 1778153759 | 2.78° C | 75% | 1020.3 hPa | - | - | - | - |
| 1778153159 | 2.78° C | 76% | 1020 hPa | - | - | - | - |
| 1778152560 | 2.78° C | 77% | 1020 hPa | - | - | - | - |
| 1778151959 | 2.78° C | 78% | 1019.7 hPa | - | - | - | - |
| 1778151360 | 2.78° C | 80% | 1019.5 hPa | - | - | - | - |
| 1778150759 | 2.78° C | 80% | 1019.4 hPa | - | - | - | - |
| 1778150159 | 2.78° C | 81% | 1019.4 hPa | - | - | - | - |
| 1778149559 | 2.78° C | 80% | 1019.2 hPa | - | - | - | - |
| 1778148959 | 3.33° C | 81% | 1019.3 hPa | - | - | - | - |
| 1778148359 | 3.33° C | 81% | 1019.1 hPa | - | - | - | - |
| 1778147759 | 3.33° C | 81% | 1019.2 hPa | - | - | - | - |
| 1778147159 | 3.33° C | 83% | 1019.2 hPa | - | - | - | - |
| 1778146559 | 3.33° C | 82% | 1018.9 hPa | - | - | - | - |
| 1778145960 | 3.33° C | 84% | 1018.6 hPa | - | - | - | - |
| 1778145360 | 3.89° C | 83% | 1018.6 hPa | - | - | - | - |
| 1778144760 | 3.33° C | 84% | 1018.6 hPa | - | - | - | - |
| 1778144160 | 3.33° C | 84% | 1018.4 hPa | - | - | - | - |
| 1778143559 | 3.33° C | 80% | 1018.3 hPa | - | - | - | - |
| 1778142959 | 3.89° C | 81% | 1018.2 hPa | - | - | - | - |
| 1778142359 | 3.89° C | 84% | 1018.4 hPa | - | - | - | - |
| 1778141760 | 3.33° C | 85% | 1018.5 hPa | - | - | - | - |
* Rain since midnight (hover to see other rain measurements)
** Current wind speed in m/s (hover to see current wind gust speed)